sat.trackr.live / text

‹ back to catalog

STARLINK-5838

NORAD 57073 · 2023-088AB

PAYLOAD ACTIVE UNKNOWN

§ Identity

Operator
Country
US
Launch date
2023-06-22
Launch site
AFWTR
Launch vehicle
Mass (kg)
RCS (m²)

Purposes: comms

External: N2YO · Heavens-Above · Gunter

§ Orbital elements

Epoch: 2026-05-25T00:38:25.257408Z

Period
94.27 min
Inclination
43.0038°
Eccentricity
0.0001031
Mean motion
15.27574374 rev/d
Perigee alt
482.4 km
Apogee alt
483.8 km
Semi-major
6,861.2 km
B*
1.1855e-5
RAAN
25.1415°
Arg perigee
247.8575°
Mean anomaly
112.2167°
Rev number
16,119

§ Raw data

STARLINK-58381 57073U 23088AB  26145.02668122  .00000064  00000+0  11855-4 0  99912 57073  43.0038  25.1415 0001031 247.8575 112.2167 15.27574374161196

JSON: /api/v1/satellites/57073 · /tle

For live sub-satellite position, see the globe view (requires WebGL).

§ Visibility from observer

Set your observer location to see the next 7 days of passes ≥ 10°. The values pass through the URL so the page stays shareable.

No JS? Fill the form by hand. The geolocation button needs JavaScript.